Brookhaven, MS

11:14 PM CDT on May 24, 2018 (GMT -0500)
Brookhaven

Weather History for K1R7 - March, 2013

Change the Weather History Date:

Sunday, March 24, 2013

  Actual Average (KMCB) Record (KMCB)
Temperature  
Mean Temperature 52 °F -  
Max Temperature 64 °F 71 °F 85 °F (1991)
Min Temperature 39 °F 44 °F 28 °F (1968)
Degree Days  
Heating Degree Days 12    
Growing Degree Days 2 (Base 50)    
Moisture  
Dew Point 45 °F    
Average Humidity 77    
Maximum Humidity 100    
Minimum Humidity 39    
Precipitation  
Precipitation 0.04 in - - ()
Sea Level Pressure  
Sea Level Pressure 29.80 in    
Wind  
Wind Speed 11 mph (WNW)    
Max Wind Speed 24 mph    
Max Gust Speed 31 mph    
Visibility 7 miles    
Events Fog , Rain , Thunderstorm    
Averages and records for this station are not official NWS values.
T = Trace of Precipitation, MM = Missing Value Source: NWS Daily Summary

Daily Weather History Graph

Daily Weather History Graph

Search for Another Location

Airport or City:

Astronomy

Mar. 24, 2013 Rise Set
Actual Time 6:59 AM CDT 7:16 PM CDT
Civil Twilight 6:35 AM CDT 7:40 PM CDT
Nautical Twilight 6:07 AM CDT 8:08 PM CDT
Astronomical Twilight 5:38 AM CDT 8:37 PM CDT
Moon 4:51 PM CDT (3/24) 5:01 AM CDT (3/24)
Length of Visible Light 13h 04m
Length of Day
12h 16m
Waxing Gibbous, 92% of the Moon is Illuminated
Mar 24
Waxing Gibbous
Mar 27
Full
Apr 2
Last Quarter
Apr 10
New
Apr 18
First Quarter

Hourly Weather History & Observations

Time (CDT) Temp. Windchill Dew Point Humidity Pressure Visibility Wind Dir Wind Speed Gust Speed Precip Events Conditions
12:15 AM 64.4 °F - 64.4 °F 100% 29.63 in 1.0 mi WNW 17.3 mph 21.9 mph N/A   Light Drizzle
12:35 AM 59.0 °F - 59.0 °F 100% 29.64 in 2.5 mi NW 17.3 mph 21.9 mph N/A Rain Light Rain
12:55 AM 57.2 °F - 57.2 °F 100% 29.66 in 2.0 mi NW 11.5 mph 19.6 mph 0.03 in Thunderstorm Light Drizzle
1:15 AM 57.2 °F - 55.4 °F 94% 29.66 in 1.8 mi North 9.2 mph - N/A   Light Drizzle
1:35 AM 57.2 °F - 55.4 °F 94% 29.66 in 5.0 mi North 6.9 mph - 0.01 in Rain Light Rain
1:55 AM 57.2 °F - 55.4 °F 94% 29.66 in 10.0 mi North 4.6 mph - 0.01 in   Overcast
2:35 AM 55.4 °F - 55.4 °F 100% 29.64 in 10.0 mi Calm Calm - N/A   Mostly Cloudy
2:55 AM 55.4 °F - 55.4 °F 100% 29.65 in 10.0 mi NW 3.5 mph - N/A   Overcast
3:15 AM 55.4 °F - 55.4 °F 100% 29.65 in 10.0 mi Calm Calm - N/A   Overcast
3:35 AM 55.4 °F - 55.4 °F 100% 29.64 in 10.0 mi Calm Calm - N/A   Mostly Cloudy
3:55 AM 55.4 °F - 55.4 °F 100% 29.65 in 0.2 mi Calm Calm - N/A Fog Fog
4:15 AM 53.6 °F - 53.6 °F 100% 29.64 in 0.2 mi Calm Calm - N/A Fog Fog
4:35 AM 53.6 °F - 53.6 °F 100% 29.64 in 0.2 mi Calm Calm - N/A Fog Fog
4:55 AM 51.8 °F - 51.8 °F 100% 29.63 in 0.2 mi Calm Calm - N/A Fog Fog
5:15 AM 53.6 °F - 53.6 °F 100% 29.63 in 0.2 mi Calm Calm - N/A Fog Fog
5:35 AM 55.4 °F - 55.4 °F 100% 29.67 in 0.2 mi West 5.8 mph - N/A Fog Fog
5:55 AM 55.4 °F - 55.4 °F 100% 29.68 in 0.2 mi West 4.6 mph - N/A Fog Fog
6:15 AM 53.6 °F - 53.6 °F 100% 29.66 in 0.8 mi West 5.8 mph - N/A   Overcast
6:35 AM 53.6 °F - 53.6 °F 100% 29.69 in 0.5 mi West 6.9 mph - N/A Fog Fog
6:55 AM 53.6 °F - 53.6 °F 100% 29.71 in 1.0 mi West 6.9 mph - N/A   Overcast
7:15 AM 53.6 °F - 53.6 °F 100% 29.70 in 0.2 mi WSW 6.9 mph - N/A Fog Fog
7:35 AM 53.6 °F - 53.6 °F 100% 29.71 in 0.2 mi West 5.8 mph - N/A Fog Fog
7:55 AM 55.4 °F - 55.4 °F 100% 29.73 in 0.2 mi West 8.1 mph - N/A Fog Fog
8:15 AM 55.4 °F - 55.4 °F 100% 29.73 in 0.2 mi West 6.9 mph - N/A Fog Fog
8:35 AM 55.4 °F - 55.4 °F 100% 29.75 in 0.2 mi West 12.7 mph 16.1 mph N/A Fog Fog
8:55 AM 55.4 °F - 55.4 °F 100% 29.76 in 1.5 mi West 10.4 mph 17.3 mph N/A   Overcast
9:15 AM 55.4 °F - 55.4 °F 100% 29.77 in 1.5 mi West 8.1 mph - N/A   Overcast
9:35 AM 55.4 °F - 55.4 °F 100% 29.75 in 2.5 mi West 8.1 mph - N/A   Overcast
9:55 AM 55.4 °F - 55.4 °F 100% 29.78 in 6.0 mi West 11.5 mph - N/A   Overcast
10:15 AM 53.6 °F - 53.6 °F 100% 29.78 in 3.0 mi West 12.7 mph - N/A   Overcast
10:35 AM 55.4 °F - 55.4 °F 100% 29.78 in 6.0 mi West 8.1 mph - N/A   Overcast
10:55 AM 55.4 °F - 53.6 °F 94% 29.78 in 9.0 mi West 9.2 mph - N/A   Overcast
11:15 AM 55.4 °F - 53.6 °F 94% 29.79 in 8.0 mi West 11.5 mph 18.4 mph N/A   Overcast
11:35 AM 55.4 °F - 53.6 °F 94% 29.80 in 10.0 mi WNW 16.1 mph 23.0 mph N/A   Overcast
11:55 AM 53.6 °F - 51.8 °F 94% 29.81 in 10.0 mi West 12.7 mph 24.2 mph N/A   Overcast
12:15 PM 53.6 °F - 50.0 °F 88% 29.82 in 10.0 mi WNW 17.3 mph 21.9 mph N/A   Overcast
12:35 PM 55.4 °F - 51.8 °F 88% 29.82 in 10.0 mi WNW 13.8 mph 19.6 mph N/A   Mostly Cloudy
12:55 PM 55.4 °F - 48.2 °F 77% 29.82 in 10.0 mi West 13.8 mph 19.6 mph N/A   Mostly Cloudy
1:15 PM 57.2 °F - 44.6 °F 63% 29.81 in 10.0 mi West 21.9 mph 26.5 mph N/A   Partly Cloudy
1:35 PM 60.8 °F - 46.4 °F 59% 29.81 in 10.0 mi WNW 18.4 mph 24.2 mph N/A   Partly Cloudy
1:55 PM 59.0 °F - 44.6 °F 59% 29.82 in 10.0 mi West 16.1 mph 26.5 mph N/A   Partly Cloudy
2:15 PM 59.0 °F - 41.0 °F 51% 29.82 in 10.0 mi West 15.0 mph 31.1 mph N/A   Clear
2:35 PM 60.8 °F - 39.2 °F 45% 29.81 in 10.0 mi WNW 24.2 mph 29.9 mph N/A   Clear
2:55 PM 59.0 °F - 35.6 °F 42% 29.82 in 10.0 mi WNW 19.6 mph 29.9 mph N/A   Clear
3:15 PM 59.0 °F - 35.6 °F 42% 29.82 in 10.0 mi West 18.4 mph 26.5 mph N/A   Clear
3:35 PM 59.0 °F - 35.6 °F 42% 29.82 in 10.0 mi West 13.8 mph 26.5 mph N/A   Clear
3:55 PM 59.0 °F - 33.8 °F 39% 29.82 in 10.0 mi West 18.4 mph 26.5 mph N/A   Clear
4:15 PM 57.2 °F - 33.8 °F 41% 29.83 in 10.0 mi West 23.0 mph 28.8 mph N/A   Clear
4:35 PM 57.2 °F - 33.8 °F 41% 29.84 in 10.0 mi West 17.3 mph 24.2 mph N/A   Clear
4:55 PM 55.4 °F - 33.8 °F 44% 29.84 in 10.0 mi WNW 16.1 mph 26.5 mph N/A   Clear
5:15 PM 55.4 °F - 33.8 °F 44% 29.85 in 10.0 mi West 17.3 mph 26.5 mph N/A   Clear
5:35 PM 55.4 °F - 33.8 °F 44% 29.86 in 10.0 mi West 18.4 mph 24.2 mph N/A   Clear
5:55 PM 55.4 °F - 32.0 °F 41% 29.87 in 10.0 mi WNW 18.4 mph 26.5 mph N/A   Clear
6:15 PM 53.6 °F - 32.0 °F 44% 29.88 in 10.0 mi WNW 17.3 mph 25.3 mph N/A   Clear
6:35 PM 53.6 °F - 32.0 °F 44% 29.89 in 10.0 mi NW 12.7 mph 21.9 mph N/A   Clear
6:55 PM 51.8 °F - 32.0 °F 47% 29.90 in 10.0 mi NW 17.3 mph 23.0 mph N/A   Clear
7:15 PM 50.0 °F - 32.0 °F 50% 29.91 in 10.0 mi NW 10.4 mph 19.6 mph N/A   Clear
7:35 PM 48.2 °F - 33.8 °F 58% 29.92 in 10.0 mi NW 13.8 mph - N/A   Clear
7:55 PM 46.4 °F 42.4 °F 33.8 °F 62% 29.93 in 10.0 mi NW 8.1 mph - N/A   Clear
8:15 PM 46.4 °F 42.4 °F 32.0 °F 57% 29.94 in 10.0 mi NW 8.1 mph - N/A   Clear
8:35 PM 46.4 °F 41.9 °F 33.8 °F 62% 29.95 in 10.0 mi NW 9.2 mph - N/A   Clear
8:55 PM 44.6 °F 39.2 °F 33.8 °F 66% 29.96 in 10.0 mi NW 10.4 mph - N/A   Clear
9:15 PM 44.6 °F 39.7 °F 32.0 °F 61% 29.97 in 10.0 mi NW 9.2 mph 17.3 mph N/A   Clear
9:35 PM 44.6 °F 36.9 °F 32.0 °F 61% 29.98 in 10.0 mi NW 18.4 mph 24.2 mph N/A   Clear
9:55 PM 44.6 °F 38.1 °F 32.0 °F 61% 29.99 in 10.0 mi NW 13.8 mph 27.6 mph N/A   Clear
10:15 PM 44.6 °F 38.8 °F 32.0 °F 61% 30.00 in 10.0 mi NW 11.5 mph 20.7 mph N/A   Clear
10:35 PM 42.8 °F 36.2 °F 32.0 °F 66% 30.01 in 10.0 mi NW 12.7 mph 23.0 mph N/A   Clear
10:55 PM 42.8 °F 37.0 °F 32.0 °F 66% 30.02 in 10.0 mi WNW 10.4 mph 18.4 mph N/A   Clear
11:15 PM 42.8 °F 36.2 °F 32.0 °F 66% 30.03 in 10.0 mi NW 12.7 mph 20.7 mph N/A   Clear
11:35 PM 41.0 °F 32.8 °F 30.2 °F 65% 30.03 in 10.0 mi WNW 16.1 mph 24.2 mph N/A   Clear
11:55 PM 39.2 °F 31.6 °F 30.2 °F 70% 30.04 in 10.0 mi NW 12.7 mph 17.3 mph N/A   Clear